Location: Juzet
(42.9779°N, 0.7597°E)
Time: 08:04:30
(UTC+00:00)

CZ-2C R/B - Pass Details

Date: 14 July 2020
Orbit: 503 x 566 km, 97.7° (Epoch: 04 August)

Event Time Altitude Azimuth Distance (km) Brightness Sun altitude
Rises 03:46:42 0° 7° (N) 2,775 7.2 -7.5°
Reaches altitude 10° 03:48:54 10° 2° (N) 1,874 6.2 -7.1°
Maximum altitude 03:52:50 49° 287° (WNW) 732 3.2 -6.6°
Drops below altitude 10° 03:56:42 10° 212° (SSW) 1,848 4.9 -6.0°
Enters shadow 03:57:42 - 209° (SSW) 2,254 5.4 -5.9°
